| time (UTC) | temp F | wind direction | speed MPH | gust MPH | rain 1hr in | rain 24hr in | rain mn in | humidity % | barometer mb |
| 20260505053313 | 58 | 277 | 13.0 | 17.0 | 0.00 | 0.00 | 0.00 | 100 | |
| 20260505053240 | 58 | 277 | 13.0 | 17.0 | 0.00 | 0.00 | 0.00 | 100 | |
| 20260505052740 | 59 | 261 | 5.0 | 17.0 | 0.00 | 0.00 | 0.00 | 100 | |
| 20260505052240 | 58 | 271 | 10.0 | 14.0 | 0.00 | 0.00 | 0.00 | 100 | |
| 20260505051830 | 58 | 285 | 7.0 | 18.0 | 0.00 | 0.00 | 0.00 | 100 | |
| 20260505051740 | 58 | 285 | 7.0 | 18.0 | 0.00 | 0.00 | 0.00 | 100 | |
| 20260505051240 | 59 | 341 | 3.0 | 15.0 | 0.00 | 0.00 | 0.00 | 100 | |
| 20260505050740 | 58 | 307 | 4.0 | 12.0 | 0.00 | 0.00 | 0.00 | 100 | |
| 20260505050240 | 58 | 277 | 4.0 | 9.0 | 0.00 | 0.00 | 0.00 | 100 | |
| 20260505041740 | 61 | 268 | 6.0 | 12.0 | 0.00 | 0.00 | 0.00 | 100 | |
| 20260505041240 | 60 | 274 | 9.0 | 10.0 | 0.00 | 0.00 | 0.00 | 100 | |
| 20260505040740 | 60 | 286 | 0.0 | 9.0 | 0.00 | 0.00 | 0.00 | 100 | |
| 20260505040636 | 60 | 258 | 8.0 | 9.0 | 0.00 | 0.00 | 0.00 | 100 | |
| 20260505040241 | 60 | 258 | 8.0 | 9.0 | 0.00 | 0.00 | 0.00 | 100 | |
| 20260505035824 | 62 | 291 | 0.0 | 0.0 | 0.00 | 0.00 | 0.00 | 100 | |
| 20260505035814 | 62 | 291 | 0.0 | 0.0 | 0.00 | 0.00 | 0.00 | 100 | |
| 20260505035802 | 63 | 291 | 0.0 | 0.0 | 0.00 | 0.00 | 0.00 | 100 | |
| 20260505035740 | 61 | 315 | 5.0 | 9.0 | 0.00 | 0.00 | 0.00 | 100 | |
| 20260505035240 | 61 | 261 | 6.0 | 8.0 | 0.00 | 0.00 | 0.00 | 100 | |
| 20260505034740 | 62 | 262 | 3.0 | 11.0 | 0.00 | 0.00 | 0.00 | 100 | |
| 20260505034240 | 62 | 295 | 7.0 | 12.0 | 0.00 | 0.00 | 0.00 | 100 | |
| 20260505033740 | 62 | 246 | 7.0 | 9.0 | 0.00 | 0.00 | 0.00 | 100 | |
| 20260505033240 | 61 | 284 | 3.0 | 11.0 | 0.00 | 0.00 | 0.00 | 100 | |
| 20260505032740 | 61 | 291 | 4.0 | 12.0 | 0.00 | 0.00 | 0.00 | 100 | |
| 20260505032316 | 74 | 261 | 0.0 | 6.0 | 0.00 | 0.00 | 0.00 | 100 | |
| 20260505032240 | 63 | 303 | 4.0 | 9.0 | 0.00 | 0.00 | 0.00 | 100 | |
| 20260505031740 | 62 | 358 | 6.0 | 9.0 | 0.00 | 0.00 | 0.00 | 100 | |
| 20260505031240 | 62 | 281 | 5.0 | 10.0 | 0.00 | 0.00 | 0.00 | 100 | |
| 20260505030740 | 62 | 278 | 0.0 | 9.0 | 0.00 | 0.00 | 0.00 | 100 | |
| 20260505030240 | 62 | 358 | 6.0 | 9.0 | 0.00 | 0.00 | 0.00 | 100 | |
| 20260505025740 | 62 | 206 | 5.0 | 8.0 | 0.00 | 0.00 | 0.00 | 100 | |
| 20260505025240 | 62 | 254 | 3.0 | 7.0 | 0.00 | 0.00 | 0.00 | 100 | |
| 20260505024740 | 62 | 275 | 6.0 | 8.0 | 0.00 | 0.00 | 0.00 | 100 | |
| 20260505024240 | 62 | 291 | 0.0 | 0.0 | 0.00 | 0.00 | 0.00 | 100 | |
| 20260505023740 | 61 | 291 | 0.0 | 0.0 | 0.00 | 0.00 | 0.00 | 100 | |
| 20260505023240 | 62 | 291 | 0.0 | 0.0 | 0.00 | 0.00 | 0.00 | 100 | |
| 20260505022740 | 62 | 291 | 0.0 | 0.0 | 0.00 | 0.00 | 0.00 | 100 | |
| 20260505022240 | 62 | 291 | 0.0 | 0.0 | 0.00 | 0.00 | 0.00 | 100 | |
| 20260505021740 | 62 | 291 | 0.0 | 0.0 | 0.00 | 0.00 | 0.00 | 100 | |
| 20260505021240 | 62 | 291 | 0.0 | 0.0 | 0.00 | 0.00 | 0.00 | 100 | |
| 20260505020740 | 63 | 291 | 0.0 | 0.0 | 0.00 | 0.00 | 0.00 | 100 | |
| 20260505020617 | 64 | 291 | 0.0 | 0.0 | 0.00 | 0.00 | 0.00 | 100 | |
| 20260505020611 | 63 | 291 | 0.0 | 0.0 | 0.00 | 0.00 | 0.00 | 100 | |
| 20260505020603 | 64 | 291 | 0.0 | 0.0 | 0.00 | 0.00 | 0.00 | 100 | |
| 20260505020240 | 63 | 291 | 0.0 | 0.0 | 0.00 | 0.00 | 0.00 | 100 | |
| 20260505015740 | 64 | 291 | 0.0 | 0.0 | 0.00 | 0.00 | 0.00 | 100 | |
| 20260505015240 | 63 | 291 | 0.0 | 0.0 | 0.00 | 0.00 | 0.00 | 100 | |
| 20260505014740 | 64 | 291 | 0.0 | 0.0 | 0.00 | 0.00 | 0.00 | 100 | |
| 20260505014240 | 64 | 291 | 0.0 | 0.0 | 0.00 | 0.00 | 0.00 | 100 | |
| 20260505014117 | 72 | 240 | 4.0 | 9.0 | 0.00 | 0.00 | 0.00 | 100 | |
| 20260505014109 | 73 | 344 | 3.0 | 8.0 | 0.00 | 0.00 | 0.00 | 100 | |
| 20260505013740 | 65 | 291 | 0.0 | 0.0 | 0.00 | 0.00 | 0.00 | 100 | |
| 20260505013240 | 65 | 291 | 0.0 | 0.0 | 0.00 | 0.00 | 0.00 | 100 | |
| 20260505012740 | 66 | 291 | 0.0 | 0.0 | 0.00 | 0.00 | 0.00 | 100 | |
| 20260505012240 | 66 | 291 | 0.0 | 0.0 | 0.00 | 0.00 | 0.00 | 100 | |
| 20260505011740 | 66 | 291 | 0.0 | 0.0 | 0.00 | 0.00 | 0.00 | 100 | |
| 20260505011240 | 67 | 291 | 0.0 | 7.0 | 0.00 | 0.00 | 0.00 | 100 | |
| 20260505010740 | 67 | 279 | 0.0 | 5.0 | 0.00 | 0.00 | 0.00 | 100 | |
| 20260505010240 | 67 | 265 | 5.0 | 8.0 | 0.00 | 0.00 | 0.00 | 100 | |
| 20260505005740 | 68 | 261 | 3.0 | 11.0 | 0.00 | 0.00 | 0.00 | 100 | |
| 20260505005240 | 68 | 277 | 6.0 | 9.0 | 0.00 | 0.00 | 0.00 | 100 | |
| 20260505004740 | 68 | 312 | 0.0 | 0.0 | 0.00 | 0.00 | 0.00 | 100 | |
| 20260505004240 | 69 | 312 | 0.0 | 12.0 | 0.00 | 0.00 | 0.00 | 100 | |
| 20260505003740 | 68 | 233 | 0.0 | 8.0 | 0.00 | 0.00 | 0.00 | 100 | |
| 20260505003240 | 68 | 289 | 0.0 | 6.0 | 0.00 | 0.00 | 0.00 | 100 | |
| 20260505002741 | 69 | 288 | 0.0 | 5.0 | 0.00 | 0.00 | 0.00 | 100 | |
| 20260505002240 | 69 | 288 | 0.0 | 6.0 | 0.00 | 0.00 | 0.00 | 100 | |
| 20260505001741 | 69 | 317 | 0.0 | 9.0 | 0.00 | 0.00 | 0.00 | 100 | |
| 20260505001240 | 69 | 240 | 7.0 | 8.0 | 0.00 | 0.00 | 0.00 | 100 | |
| 20260505000740 | 70 | 293 | 0.0 | 10.0 | 0.00 | 0.00 | 0.00 | 100 | |
| 20260505000240 | 69 | 265 | 3.0 | 10.0 | 0.00 | 0.00 | 0.00 | 100 | |
| 20260504235741 | 70 | 275 | 5.0 | 12.0 | 0.00 | 0.00 | 0.00 | 100 | |
| 20260504235241 | 69 | 298 | 4.0 | 7.0 | 0.00 | 0.00 | 0.00 | 100 | |
| 20260504234741 | 70 | 343 | 5.0 | 9.0 | 0.00 | 0.00 | 0.00 | 100 | |
| 20260504234241 | 70 | 16 | 5.0 | 11.0 | 0.00 | 0.00 | 0.00 | 100 | |
| 20260504233741 | 68 | 16 | 5.0 | 9.0 | 0.00 | 0.00 | 0.00 | 100 | |
| 20260504233241 | 70 | 279 | 2.0 | 7.0 | 0.00 | 0.00 | 0.00 | 100 | |
| 20260504232741 | 70 | 296 | 5.0 | 10.0 | 0.00 | 0.00 | 0.00 | 100 | |
| 20260504232241 | 70 | 275 | 0.0 | 14.0 | 0.00 | 0.00 | 0.00 | 100 | |
| 20260504231741 | 69 | 286 | 0.0 | 10.0 | 0.00 | 0.00 | 0.00 | 100 | |
| 20260504231241 | 70 | 291 | 3.0 | 22.0 | 0.00 | 0.00 | 0.00 | 100 | |
| 20260504230741 | 72 | 289 | 11.0 | 11.0 | 0.00 | 0.00 | 0.00 | 100 | |
| 20260504230241 | 72 | 202 | 0.0 | 9.0 | 0.00 | 0.00 | 0.00 | 100 | |
| 20260504225741 | 72 | 271 | 2.0 | 9.0 | 0.00 | 0.00 | 0.00 | 100 | |
| 20260504225241 | 71 | 317 | 4.0 | 10.0 | 0.00 | 0.00 | 0.00 | 100 | |
| 20260504224741 | 72 | 22 | 8.0 | 9.0 | 0.00 | 0.00 | 0.00 | 100 | |
| 20260504224241 | 72 | 255 | 6.0 | 11.0 | 0.00 | 0.00 | 0.00 | 100 | |
| 20260504223741 | 72 | 285 | 5.0 | 11.0 | 0.00 | 0.00 | 0.00 | 100 | |
| 20260504223241 | 73 | 317 | 7.0 | 12.0 | 0.00 | 0.00 | 0.00 | 100 | |
| 20260504222741 | 74 | 299 | 11.0 | 13.0 | 0.00 | 0.00 | 0.00 | 100 | |
| 20260504222241 | 72 | 240 | 4.0 | 9.0 | 0.00 | 0.00 | 0.00 | 100 | |
| 20260504221741 | 73 | 344 | 3.0 | 8.0 | 0.00 | 0.00 | 0.00 | 100 | |
| 20260504221241 | 72 | 241 | 2.0 | 15.0 | 0.00 | 0.00 | 0.00 | 100 | |
| 20260504220939 | 52 | 147 | 0.0 | 0.0 | 0.00 | 0.00 | 0.00 | 100 | |
| 20260504220929 | 52 | 147 | 0.0 | 0.0 | 0.00 | 0.00 | 0.00 | 100 | |
| 20260504220741 | 74 | 261 | 0.0 | 6.0 | 0.00 | 0.00 | 0.00 | 100 | |
| 20260504220241 | 72 | 248 | 0.0 | 12.0 | 0.00 | 0.00 | 0.00 | 100 | |
| 20260504215741 | 74 | 285 | 8.0 | 17.0 | 0.00 | 0.00 | 0.00 | 100 | |
| 20260504215241 | 74 | 255 | 5.0 | 18.0 | 0.00 | 0.00 | 0.00 | 100 | |
| 20260504214741 | 74 | 343 | 0.0 | 13.0 | 0.00 | 0.00 | 0.00 | 100 | |
| 20260504214241 | 72 | 309 | 6.0 | 13.0 | 0.00 | 0.00 | 0.00 | 100 | |
| 20260504213741 | 73 | 47 | 8.0 | 13.0 | 0.00 | 0.00 | 0.00 | 100 | |
| 20260504213241 | 73 | 281 | 6.0 | 12.0 | 0.00 | 0.00 | 0.00 | 100 | |
| 20260504212741 | 74 | 213 | 0.0 | 8.0 | 0.00 | 0.00 | 0.00 | 100 | |
| 20260504212241 | 74 | 279 | 0.0 | 7.0 | 0.00 | 0.00 | 0.00 | 100 | |
| 20260504211741 | 73 | 246 | 7.0 | 14.0 | 0.00 | 0.00 | 0.00 | 100 | |
| 20260504211241 | 74 | 270 | 6.0 | 12.0 | 0.00 | 0.00 | 0.00 | 100 | |
| 20260504210741 | 75 | 223 | 7.0 | 11.0 | 0.00 | 0.00 | 0.00 | 100 | |
| 20260504210241 | 74 | 303 | 4.0 | 9.0 | 0.00 | 0.00 | 0.00 | 100 | |
| 20260504205741 | 73 | 302 | 6.0 | 17.0 | 0.00 | 0.00 | 0.00 | 100 | |
| 20260504205241 | 73 | 351 | 8.0 | 10.0 | 0.00 | 0.00 | 0.00 | 100 | |
| 20260504204741 | 73 | 279 | 3.0 | 15.0 | 0.00 | 0.00 | 0.00 | 100 | |
| 20260504204458 | 72 | 358 | 10.0 | 19.0 | 0.00 | 0.00 | 0.00 | 100 | |
| 20260504204241 | 73 | 264 | 5.0 | 13.0 | 0.00 | 0.00 | 0.00 | 100 | |
| 20260504203741 | 72 | 343 | 4.0 | 14.0 | 0.00 | 0.00 | 0.00 | 100 | |
| 20260504203241 | 73 | 310 | 5.0 | 17.0 | 0.00 | 0.00 | 0.00 | 100 | |
| 20260504202741 | 72 | 358 | 10.0 | 19.0 | 0.00 | 0.00 | 0.00 | 100 | |
| 20260504202241 | 74 | 326 | 7.0 | 15.0 | 0.00 | 0.00 | 0.00 | 100 | |
| 20260504201741 | 75 | 181 | 0.0 | 9.0 | 0.00 | 0.00 | 0.00 | 100 | |
| 20260504201314 | 73 | 262 | 8.0 | 10.0 | 0.00 | 0.00 | 0.00 | 100 | |
| 20260504201241 | 73 | 262 | 8.0 | 10.0 | 0.00 | 0.00 | 0.00 | 100 | |
| 20260504200741 | 73 | 282 | 4.0 | 12.0 | 0.00 | 0.00 | 0.00 | 100 | |
| 20260504200241 | 74 | 291 | 5.0 | 12.0 | 0.00 | 0.00 | 0.00 | 100 | |
| 20260504195741 | 74 | 300 | 7.0 | 14.0 | 0.00 | 0.00 | 0.00 | 100 | |
| 20260504195241 | 74 | 250 | 3.0 | 14.0 | 0.00 | 0.00 | 0.00 | 100 | |
| 20260504194741 | 74 | 278 | 6.0 | 11.0 | 0.00 | 0.00 | 0.00 | 100 | |
| 20260504194241 | 72 | 258 | 3.0 | 12.0 | 0.00 | 0.00 | 0.00 | 100 | |
| 20260504193741 | 73 | 279 | 4.0 | 10.0 | 0.00 | 0.00 | 0.00 | 100 | |
| 20260504193241 | 72 | 310 | 4.0 | 12.0 | 0.00 | 0.00 | 0.00 | 100 | |
| 20260504192741 | 72 | 267 | 7.0 | 11.0 | 0.00 | 0.00 | 0.00 | 100 | |
| 20260504192241 | 72 | 291 | 4.0 | 14.0 | 0.00 | 0.00 | 0.00 | 100 | |
| 20260504191741 | 71 | 254 | 5.0 | 14.0 | 0.00 | 0.00 | 0.00 | 100 | |
| 20260504191241 | 72 | 313 | 7.0 | 12.0 | 0.00 | 0.00 | 0.00 | 100 | |
| 20260504190741 | 72 | 255 | 7.0 | 16.0 | 0.00 | 0.00 | 0.00 | 100 | |
| 20260504190241 | 72 | 279 | 9.0 | 12.0 | 0.00 | 0.00 | 0.00 | 100 | |
| 20260504185741 | 72 | 272 | 10.0 | 14.0 | 0.00 | 0.00 | 0.00 | 100 | |
| 20260504185241 | 71 | 236 | 10.0 | 18.0 | 0.00 | 0.00 | 0.00 | 100 | |
| 20260504184741 | 71 | 274 | 18.0 | 18.0 | 0.00 | 0.00 | 0.00 | 100 | |
| 20260504184639 | 70 | 251 | 5.0 | 11.0 | 0.00 | 0.00 | 0.00 | 100 | |
| 20260504184241 | 70 | 229 | 0.0 | 9.0 | 0.00 | 0.00 | 0.00 | 100 | |
| 20260504183741 | 71 | 255 | 0.0 | 8.0 | 0.00 | 0.00 | 0.00 | 100 | |
| 20260504183241 | 71 | 264 | 0.0 | 11.0 | 0.00 | 0.00 | 0.00 | 100 | |
| 20260504182741 | 70 | 251 | 5.0 | 11.0 | 0.00 | 0.00 | 0.00 | 100 | |
| 20260504182241 | 70 | 234 | 0.0 | 13.0 | 0.00 | 0.00 | 0.00 | 100 | |
| 20260504181741 | 70 | 293 | 11.0 | 15.0 | 0.00 | 0.00 | 0.00 | 100 | |
| 20260504181241 | 70 | 329 | 4.0 | 12.0 | 0.00 | 0.00 | 0.00 | 100 | |
| 20260504180741 | 70 | 307 | 6.0 | 14.0 | 0.00 | 0.00 | 0.00 | 100 | |
| 20260504180241 | 70 | 212 | 0.0 | 10.0 | 0.00 | 0.00 | 0.00 | 100 | |
| 20260504175741 | 69 | 275 | 8.0 | 13.0 | 0.00 | 0.00 | 0.00 | 100 | |
| 20260504175241 | 68 | 278 | 5.0 | 11.0 | 0.00 | 0.00 | 0.00 | 100 | |
| 20260504174741 | 68 | 298 | 5.0 | 10.0 | 0.00 | 0.00 | 0.00 | 100 | |
| 20260504174241 | 68 | 264 | 7.0 | 12.0 | 0.00 | 0.00 | 0.00 | 100 | |
| 20260504173741 | 67 | 271 | 7.0 | 14.0 | 0.00 | 0.00 | 0.00 | 100 | |
| 20260504173241 | 68 | 267 | 10.0 | 11.0 | 0.00 | 0.00 | 0.00 | 100 | |
| 20260504172741 | 68 | 267 | 3.0 | 10.0 | 0.00 | 0.00 | 0.00 | 100 | |
| 20260504172241 | 68 | 240 | 6.0 | 11.0 | 0.00 | 0.00 | 0.00 | 100 | |
| 20260504171741 | 68 | 241 | 7.0 | 13.0 | 0.00 | 0.00 | 0.00 | 100 | |
| 20260504171241 | 65 | 270 | 4.0 | 9.0 | 0.00 | 0.00 | 0.00 | 100 | |
| 20260504170741 | 65 | 288 | 5.0 | 11.0 | 0.00 | 0.00 | 0.00 | 100 | |
| 20260504170241 | 67 | 260 | 3.0 | 6.0 | 0.00 | 0.00 | 0.00 | 100 | |
| 20260504160241 | 62 | 310 | 0.0 | 7.0 | 0.00 | 0.00 | 0.00 | 100 | |
| 20260504150741 | 58 | 147 | 0.0 | 0.0 | 0.00 | 0.00 | 0.00 | 100 | |
| 20260504150241 | 59 | 147 | 0.0 | 0.0 | 0.00 | 0.00 | 0.00 | 100 | |
| 20260504141241 | 55 | 147 | 0.0 | 0.0 | 0.00 | 0.00 | 0.00 | 100 | |
| 20260504140741 | 55 | 147 | 0.0 | 0.0 | 0.00 | 0.00 | 0.00 | 100 | |
| 20260504140241 | 54 | 147 | 0.0 | 0.0 | 0.00 | 0.00 | 0.00 | 100 | |
| 20260504130741 | 53 | 147 | 0.0 | 0.0 | 0.00 | 0.00 | 0.00 | 100 | |
| 20260504130241 | 52 | 147 | 0.0 | 0.0 | 0.00 | 0.00 | 0.00 | 100 | |
| 20260504120241 | 52 | 175 | 0.0 | 4.0 | 0.00 | 0.00 | 0.00 | 100 | |
| 20260504110503 | 55 | 120 | 5.0 | 8.0 | 0.00 | 0.00 | 0.00 | 100 | |
| 20260504110445 | 55 | 101 | 0.0 | 7.0 | 0.00 | 0.00 | 0.00 | 100 | |
| 20260504110438 | 54 | 73 | 0.0 | 8.0 | 0.00 | 0.00 | 0.00 | 100 | |
| 20260504110426 | 55 | 120 | 5.0 | 8.0 | 0.00 | 0.00 | 0.00 | 100 | |
| 20260504110241 | 55 | 101 | 0.0 | 7.0 | 0.00 | 0.00 | 0.00 | 100 | |
| 20260504100241 | 55 | 42 | 0.0 | 6.0 | 0.00 | 0.00 | 0.00 | 100 | |
| 20260504081742 | 59 | 122 | 5.0 | 6.0 | 0.00 | 0.00 | 0.00 | 100 | |
| 20260504081328 | 58 | 116 | 1.0 | 6.0 | 0.00 | 0.00 | 0.00 | 100 | |
| 20260504081242 | 58 | 116 | 1.0 | 6.0 | 0.00 | 0.00 | 0.00 | 100 | |
| 20260504080903 | 57 | 123 | 4.0 | 7.0 | 0.00 | 0.00 | 0.00 | 100 | |
| 20260504080742 | 57 | 123 | 4.0 | 7.0 | 0.00 | 0.00 | 0.00 | 100 | |
| 20260504080339 | 60 | 133 | 0.0 | 7.0 | 0.00 | 0.00 | 0.00 | 100 | |
| 20260504080333 | 59 | 163 | 0.0 | 13.0 | 0.00 | 0.00 | 0.00 | 100 | |
| 20260504080325 | 61 | 7 | 0.0 | 0.0 | 0.00 | 0.00 | 0.00 | 100 | |
| 20260504080242 | 57 | 143 | 2.0 | 3.0 | 0.00 | 0.00 | 0.00 | 100 | |
| 20260504070242 | 59 | 133 | 0.0 | 0.0 | 0.00 | 0.00 | 0.00 | 100 | |
| 20260504060242 | 62 | 70 | 0.0 | 0.0 | 0.00 | 0.00 | 0.00 | 100 |